DW6016 Weather Reports


Display with metric or nautical units.
time (UTC)temp
F
wind
direction
speed
MPH
gust
MPH
rain 1hr
in
rain 24hr
in
rain mn
in
humidity
%
barometer
mb
20260505213513 64 321 0.0 0.0 0.00 0.00 0.00 73 1017.0
20260505213009 63 298 0.0 0.0 0.00 0.00 0.00 74 1017.0
20260505212506 63 317 0.0 1.0 0.00 0.00 0.00 74 1017.3
20260505212003 64 272 1.0 2.0 0.00 0.00 0.00 76 1017.0
20260505211500 64 314 0.0 1.0 0.00 0.00 0.00 74 1017.3
20260505210956 64 298 0.0 0.0 0.00 0.00 0.00 74 1017.2
20260505210453 64 302 0.0 0.0 0.00 0.00 0.00 74 1017.3
20260505205950 63 298 0.0 0.0 0.00 0.00 0.00 75 1017.2
20260505205449 62 330 0.0 0.0 0.00 0.00 0.00 76 1017.4
20260505204945 63 304 1.0 1.0 0.00 0.00 0.00 75 1017.4
20260505204443 63 334 1.0 1.0 0.00 0.00 0.00 74 1017.5
20260505203940 63 308 0.0 0.0 0.00 0.00 0.00 75 1017.5
20260505203436 62 311 0.0 0.0 0.00 0.00 0.00 77 1017.7
20260505202933 63 309 1.0 1.0 0.00 0.00 0.00 75 1017.5
20260505202429 63 305 0.0 0.0 0.00 0.00 0.00 77 1017.6
20260505201926 62 297 0.0 0.0 0.00 0.00 0.00 78 1017.6
20260505201423 61 311 0.0 0.0 0.00 0.00 0.00 77 1017.6
20260505200921 62 309 1.0 2.0 0.00 0.00 0.00 77 1017.7
20260505200418 62 305 0.0 0.0 0.00 0.00 0.00 78 1017.8
20260505195913 62 309 2.0 2.0 0.00 0.00 0.00 77 1017.5
20260505195411 61 314 0.0 0.0 0.00 0.00 0.00 77 1017.6
20260505194908 62 324 0.0 1.0 0.00 0.00 0.00 77 1017.7
20260505194406 62 291 1.0 1.0 0.00 0.00 0.00 78 1017.5
20260505193905 61 326 0.0 1.0 0.00 0.00 0.00 77 1017.9
20260505193404 62 60 1.0 2.0 0.00 0.00 0.00 76 1017.8
20260505192901 63 330 0.0 0.0 0.00 0.00 0.00 77 1017.6
20260505192359 63 306 1.0 1.0 0.00 0.00 0.00 75 1017.7
20260505191856 61 315 0.0 0.0 0.00 0.00 0.00 79 1017.6
20260505191355 61 341 1.0 2.0 0.00 0.00 0.00 77 1017.6
20260505190851 60 310 0.0 1.0 0.00 0.00 0.00 78 1017.8
20260505190347 61 343 0.0 0.0 0.00 0.00 0.00 79 1017.8
20260505185842 63 85 1.0 2.0 0.00 0.00 0.00 75 1017.7
20260505185339 62 279 1.0 1.0 0.00 0.00 0.00 79 1017.8
20260505184835 60 257 1.0 2.0 0.00 0.00 0.00 80 1017.8
20260505184332 60 330 0.0 0.0 0.00 0.00 0.00 81 1017.6
20260505183830 60 110 2.0 2.0 0.00 0.00 0.00 81 1017.9
20260505183326 59 350 2.0 2.0 0.00 0.00 0.00 81 1017.7
20260505182823 58 325 1.0 1.0 0.00 0.00 0.00 82 1018.1
20260505182320 59 303 3.0 3.0 0.00 0.00 0.00 82 1017.9
20260505181817 58 327 0.0 0.0 0.00 0.00 0.00 83 1017.7
20260505181314 58 310 1.0 1.0 0.00 0.00 0.00 83 1017.7
20260505180810 59 305 0.0 0.0 0.00 0.00 0.00 84 1017.7
20260505180307 58 310 0.0 0.0 0.00 0.00 0.00 84 1017.7
20260505175803 58 305 0.0 0.0 0.00 0.00 0.00 83 1017.8
20260505175300 58 289 1.0 1.0 0.00 0.00 0.00 84 1017.8
20260505174756 57 309 0.0 0.0 0.00 0.00 0.00 85 1017.7
20260505174254 58 307 1.0 1.0 0.00 0.00 0.00 84 1017.7
20260505173749 57 296 0.0 0.0 0.00 0.00 0.00 87 1017.7
20260505173246 57 286 1.0 1.0 0.00 0.00 0.00 86 1017.6
20260505172743 57 300 1.0 1.0 0.00 0.00 0.00 86 1017.6
20260505172240 57 316 2.0 2.0 0.00 0.00 0.00 86 1017.6
20260505171740 57 304 1.0 1.0 0.00 0.00 0.00 86 1017.6
20260505171237 57 307 0.0 0.0 0.00 0.00 0.00 87 1017.6
20260505170734 57 308 2.0 2.0 0.00 0.00 0.00 86 1017.6
20260505170231 57 307 0.0 1.0 0.00 0.00 0.00 86 1017.4
20260505165726 57 305 0.0 1.0 0.00 0.00 0.00 86 1017.5
20260505165223 57 308 1.0 1.0 0.00 0.00 0.00 85 1017.6
20260505164718 57 307 0.0 0.0 0.00 0.00 0.00 86 1017.6
20260505164216 57 307 0.0 0.0 0.00 0.00 0.00 87 1017.3
20260505163714 57 303 1.0 2.0 0.00 0.00 0.00 85 1017.2
20260505163212 57 305 1.0 1.0 0.00 0.00 0.00 85 1017.5
20260505162709 58 299 0.0 0.0 0.00 0.00 0.00 85 1017.4
20260505162206 58 287 0.0 0.0 0.00 0.00 0.00 84 1017.4
20260505161703 58 288 0.0 0.0 0.00 0.00 0.00 84 1017.2
20260505161200 57 305 2.0 2.0 0.00 0.00 0.00 86 1017.4
20260505160658 58 307 2.0 2.0 0.00 0.00 0.00 85 1017.1
20260505160155 58 282 0.0 1.0 0.00 0.00 0.00 86 1017.4
20260505153134 57 279 0.0 0.0 0.00 0.00 0.00 87 1017.1
20260505152631 56 280 0.0 0.0 0.00 0.00 0.00 87 1017.0
20260505152127 56 280 0.0 0.0 0.00 0.00 0.00 88 1017.4
20260505151622 56 281 0.0 0.0 0.00 0.00 0.00 88 1017.2
20260505151120 56 281 0.0 0.0 0.00 0.00 0.00 89 1017.1
20260505150616 56 278 1.0 1.0 0.00 0.00 0.00 88 1017.2
20260505150113 56 288 0.0 0.0 0.00 0.00 0.00 89 1017.0
20260505140541 55 288 0.0 0.0 0.00 0.00 0.00 91 1016.6
20260505124955 54 290 0.0 0.0 0.00 0.00 0.00 91 1015.9
20260505124452 54 289 0.0 0.0 0.00 0.00 0.00 91 1016.3
20260505123948 54 289 0.0 0.0 0.00 0.00 0.00 91 1016.1
20260505123444 54 291 0.0 0.0 0.00 0.00 0.00 92 1016.1
20260505122940 54 291 0.0 0.0 0.00 0.00 0.00 92 1016.2
20260505122438 54 291 0.0 0.0 0.00 0.00 0.00 92 1016.1
20260505121934 54 291 0.0 0.0 0.00 0.00 0.00 92 1016.2
20260505121432 54 291 0.0 0.0 0.00 0.00 0.00 92 1016.1
20260505120927 54 291 0.0 0.0 0.00 0.00 0.00 92 1016.0
20260505120424 54 291 0.0 0.0 0.00 0.00 0.00 91 1016.0
20260505115923 54 291 0.0 0.0 0.00 0.00 0.00 91 1016.0
20260505115420 54 291 0.0 0.0 0.00 0.00 0.00 92 1015.9
20260505114918 54 291 0.0 0.0 0.00 0.00 0.00 92 1016.0
20260505114414 54 291 0.0 0.0 0.00 0.00 0.00 93 1016.3
20260505113910 54 291 0.0 0.0 0.00 0.00 0.00 93 1016.1
20260505113407 54 291 0.0 0.0 0.00 0.00 0.00 93 1015.9
20260505112903 54 291 0.0 0.0 0.00 0.00 0.00 93 1015.8
20260505112401 53 291 0.0 0.0 0.00 0.00 0.00 94 1016.0
20260505111856 53 291 0.0 0.0 0.00 0.00 0.00 94 1016.0
20260505111351 53 291 0.0 0.0 0.00 0.00 0.00 94 1016.0
20260505110847 53 291 0.0 0.0 0.00 0.00 0.00 95 1016.0
20260505110345 53 291 0.0 0.0 0.00 0.00 0.00 95 1015.9
20260505101815 52 291 0.0 0.0 0.00 0.00 0.00 99 1015.6
20260505101310 52 291 0.0 0.0 0.00 0.00 0.00 99 1015.3
20260505100806 51 291 0.0 0.0 0.00 0.00 0.00 98 1015.4
20260505100303 51 291 0.0 0.0 0.00 0.00 0.00 98 1015.4
20260505095759 51 291 0.0 0.0 0.00 0.00 0.00 98 1015.8
20260505095257 51 291 0.0 0.0 0.00 0.00 0.00 98 1015.7
20260505094752 51 291 0.0 0.0 0.00 0.00 0.00 98 1015.4
20260505094249 51 291 0.0 0.0 0.00 0.00 0.00 97 1015.5
20260505093745 51 291 0.0 0.0 0.00 0.00 0.00 97 1015.5
20260505093243 51 291 0.0 0.0 0.00 0.00 0.00 97 1015.4
20260505092739 51 291 0.0 0.0 0.00 0.00 0.00 97 1015.4
20260505092238 51 291 0.0 0.0 0.00 0.00 0.00 96 1015.4
20260505091735 51 291 0.0 0.0 0.00 0.00 0.00 96 1015.4
20260505091233 51 291 0.0 0.0 0.00 0.00 0.00 95 1015.2
20260505090730 52 291 0.0 0.0 0.00 0.00 0.00 94 1015.3
20260505090229 52 291 0.0 0.0 0.00 0.00 0.00 94 1015.3
20260505085725 52 291 0.0 0.0 0.00 0.00 0.00 94 1014.9
20260505085224 53 291 0.0 0.0 0.00 0.00 0.00 93 1015.1
20260505084721 53 291 0.0 0.0 0.00 0.00 0.00 93 1015.3
20260505084220 53 291 0.0 0.0 0.00 0.00 0.00 92 1015.4
20260505083716 53 291 0.0 0.0 0.00 0.00 0.00 92 1015.0
20260505083213 53 291 0.0 0.0 0.00 0.00 0.00 91 1015.1
20260505082709 54 291 0.0 0.0 0.00 0.00 0.00 91 1015.1
20260505082206 54 284 0.0 0.0 0.00 0.00 0.00 91 1014.9
20260505081702 54 284 0.0 0.0 0.00 0.00 0.00 91 1015.0
20260505081200 54 284 0.0 0.0 0.00 0.00 0.00 91 1015.2
20260505080656 54 284 0.0 0.0 0.00 0.00 0.00 91 1014.8
20260505080152 54 284 0.0 0.0 0.00 0.00 0.00 91 1014.7
20260505075648 54 284 0.0 0.0 0.00 0.00 0.00 91 1014.9
20260505075145 54 284 0.0 0.0 0.00 0.00 0.00 91 1014.7
20260505074642 54 284 0.0 0.0 0.00 0.00 0.00 91 1014.9
20260505074139 55 284 0.0 0.0 0.00 0.00 0.00 91 1014.8
20260505073637 55 272 0.0 0.0 0.00 0.00 0.00 90 1014.4
20260505073135 55 272 0.0 0.0 0.00 0.00 0.00 90 1014.5
20260505072630 55 272 0.0 0.0 0.00 0.00 0.00 89 1014.5
20260505072127 56 272 0.0 0.0 0.00 0.00 0.00 88 1014.5
20260505071623 56 272 0.0 0.0 0.00 0.00 0.00 88 1014.2
20260505071121 56 272 0.0 0.0 0.00 0.00 0.00 87 1014.3
20260505070618 57 272 0.0 0.0 0.00 0.00 0.00 86 1014.2
20260505070114 57 272 0.0 0.0 0.00 0.00 0.00 86 1014.2
20260505065610 57 272 0.0 0.0 0.00 0.00 0.00 86 1014.2
20260505065107 57 276 0.0 0.0 0.00 0.00 0.00 86 1014.1
20260505064604 57 275 1.0 1.0 0.00 0.00 0.00 86 1014.0
20260505064102 57 275 0.0 0.0 0.00 0.00 0.00 85 1014.1
20260505063559 57 276 0.0 0.0 0.00 0.00 0.00 85 1013.7
20260505063055 58 276 0.0 0.0 0.00 0.00 0.00 84 1013.7
20260505062551 58 276 0.0 0.0 0.00 0.00 0.00 84 1014.0
20260505062049 58 276 0.0 0.0 0.00 0.00 0.00 83 1013.7
20260505061546 59 272 0.0 0.0 0.00 0.00 0.00 83 1013.9
20260505061044 59 272 0.0 0.0 0.00 0.00 0.00 82 1013.7
20260505060541 59 277 0.0 0.0 0.00 0.00 0.00 82 1013.5
20260505060037 60 276 0.0 0.0 0.00 0.00 0.00 81 1013.7
20260505055533 60 276 1.0 1.0 0.00 0.00 0.00 81 1013.6
20260505055030 60 284 0.0 0.0 0.00 0.00 0.00 80 1013.6
20260505054527 61 286 1.0 1.0 0.00 0.00 0.00 79 1013.4
20260505054025 61 293 0.0 0.0 0.00 0.00 0.00 80 1013.6
20260505053522 61 314 0.0 0.0 0.00 0.00 0.00 80 1013.2
20260505053019 62 314 0.0 0.0 0.00 0.00 0.00 78 1013.4
20260505052516 62 314 0.0 0.0 0.00 0.00 0.00 78 1013.4
20260505052013 63 290 0.0 0.0 0.00 0.00 0.00 77 1013.2
20260505051510 64 307 0.0 0.0 0.00 0.00 0.00 77 1013.1
20260505051008 64 308 0.0 0.0 0.00 0.00 0.00 75 1013.1
20260505050506 65 304 0.0 0.0 0.00 0.00 0.00 74 1013.0
20260504224642 71 304 0.0 0.0 0.00 0.00 0.00 65 1012.4
20260504224138 71 304 0.0 0.0 0.00 0.00 0.00 65 1012.4
20260504223636 71 307 0.0 1.0 0.00 0.00 0.00 67 1012.5
20260504223131 71 300 0.0 0.0 0.00 0.00 0.00 65 1012.4
20260504222628 71 308 2.0 2.0 0.00 0.00 0.00 67 1012.6
20260504222125 70 294 0.0 1.0 0.00 0.00 0.00 67 1012.4
20260504221622 70 298 2.0 2.0 0.00 0.00 0.00 66 1012.8
20260504221120 70 305 1.0 2.0 0.00 0.00 0.00 65 1012.5
20260504220616 70 306 2.0 2.0 0.00 0.00 0.00 66 1012.7
20260504220114 70 310 1.0 1.0 0.00 0.00 0.00 67 1012.9
20260504215609 70 314 0.0 0.0 0.00 0.00 0.00 70 1012.8
20260504215107 70 288 0.0 0.0 0.00 0.00 0.00 66 1012.9
20260504214603 70 243 1.0 2.0 0.00 0.00 0.00 69 1013.0
20260504214059 69 304 0.0 1.0 0.00 0.00 0.00 68 1013.1